Location: Unnamed
(49.2205°N, 28.4120°E)
Time: 23:36:47
(UTC+03:00)

ISS - Visible Passes

Search period start: 16 April 2026 00:00
Search period end: 26 April 2026 00:00
Orbit: 415 x 424 km, 51.6° (Epoch: 15 April)

Date Brightness Start Highest point End Pass type
(mag) Time Alt. Az. Time Alt. Az. Time Alt. Az.
20 Apr -1.6 04:53:57 10° S 04:56:21 18° SE 04:58:46 10° E visible
21 Apr -1.2 04:08:07 11° SSE 04:09:08 12° SE 04:10:34 10° ESE visible
22 Apr -2.8 04:55:28 14° SW 04:58:00 39° SSE 05:01:12 10° ENE visible
23 Apr -2.4 04:09:48 24° S 04:10:40 27° SE 04:13:35 10° E visible
24 Apr -1.6 03:24:04 17° ESE 03:24:04 17° ESE 03:25:47 10° E visible
24 Apr -3.7 04:57:01 14° WSW 04:59:47 78° SSE 05:03:11 10° ENE visible
25 Apr -3.5 04:11:14 35° SW 04:12:21 57° SSE 04:15:41 10° ENE visible
